DW0809 Weather Reports


Display with metric or nautical units.
time (UTC)temp
F
wind
direction
speed
MPH
gust
MPH
rain 1hr
in
rain 24hr
in
rain mn
in
humidity
%
barometer
mb
20260510145519 63 0.0 0.0 0.00 0.00 0.00 40 1024.4
20260510144517 62 0.0 0.0 0.00 0.00 0.00 38 1024.2
20260510143519 60 0.0 0.0 0.00 0.00 0.00 38 1024.1
20260510142521 60 0.0 0.0 0.00 0.00 0.00 41 1023.9
20260510141517 59 0.0 0.0 0.00 0.00 0.00 40 1023.8
20260510140538 57 0.0 0.0 0.00 0.00 0.00 43 1023.6
20260510135532 55 0.0 0.0 0.00 0.00 0.00 45 1023.5
20260510134540 54 0.0 0.0 0.00 0.00 0.00 48 1023.4
20260510133520 53 0.0 0.0 0.00 0.00 0.00 48 1023.3
20260510132517 52 0.0 0.0 0.00 0.00 0.00 54 1023.3
20260510131520 51 0.0 0.0 0.00 0.00 0.00 53 1023.3
20260510130519 50 0.0 0.0 0.00 0.00 0.00 60 1023.0
20260510125618 50 0.0 0.0 0.00 0.00 0.00 63 1023.0
20260510124518 50 0.0 0.0 0.00 0.00 0.00 64 1022.8
20260510123516 49 0.0 0.0 0.00 0.00 0.00 63 1022.6
20260510122517 49 0.0 0.0 0.00 0.00 0.00 60 1022.7
20260510121518 49 0.0 0.0 0.00 0.00 0.00 60 1022.6
20260510120517 49 0.0 0.0 0.00 0.00 0.00 61 1022.5
20260510115517 49 0.0 0.0 0.00 0.00 0.00 63 1022.4
20260510114516 49 0.0 0.0 0.00 0.00 0.00 61 1022.2
20260510113517 49 0.0 0.0 0.00 0.00 0.00 61 1022.3
20260510112517 49 0.0 0.0 0.00 0.00 0.00 55 1022.3
20260510111536 49 0.0 0.0 0.00 0.00 0.00 53 1022.4
20260510110536 49 0.0 0.0 0.00 0.00 0.00 53 1022.3
20260510105517 48 0.0 0.0 0.00 0.00 0.00 54 1022.2
20260510104518 48 0.0 0.0 0.00 0.00 0.00 56 1022.2
20260510103518 48 0.0 0.0 0.00 0.00 0.00 55 1022.1
20260510102516 48 0.0 0.0 0.00 0.00 0.00 57 1021.9
20260510101516 48 0.0 0.0 0.00 0.00 0.00 56 1021.7
20260510100516 48 0.0 0.0 0.00 0.00 0.00 55 1021.7
20260510095516 48 0.0 0.0 0.00 0.00 0.00 55 1021.3
20260510094516 48 0.0 0.0 0.00 0.00 0.00 55 1021.1
20260510093517 48 0.0 0.0 0.00 0.00 0.00 53 1021.0
20260510092517 49 0.0 0.0 0.00 0.00 0.00 51 1020.8
20260510091516 49 0.0 0.0 0.00 0.00 0.00 51 1021.0
20260510090516 49 0.0 0.0 0.00 0.00 0.00 51 1020.9
20260510085517 50 0.0 0.0 0.00 0.00 0.00 50 1020.8
20260510084516 50 0.0 0.0 0.00 0.00 0.00 49 1020.9
20260510083536 50 0.0 0.0 0.00 0.00 0.00 48 1021.1
20260510082516 51 0.0 0.0 0.00 0.00 0.00 48 1021.0
20260510081516 51 0.0 0.0 0.00 0.00 0.00 50 1021.0
20260510080537 51 0.0 0.0 0.00 0.00 0.00 47 1021.0
20260510075517 52 0.0 0.0 0.00 0.00 0.00 46 1020.9
20260510074516 52 0.0 0.0 0.00 0.00 0.00 46 1020.7
20260510073516 52 0.0 0.0 0.00 0.00 0.00 46 1020.6
20260510072517 52 0.0 0.0 0.00 0.00 0.00 45 1020.4
20260510071518 53 0.0 0.0 0.00 0.00 0.00 44 1020.3
20260510070518 53 0.0 0.0 0.00 0.00 0.00 44 1020.3
20260510065538 53 0.0 0.0 0.00 0.00 0.00 44 1020.2
20260510064518 54 0.0 0.0 0.00 0.00 0.00 44 1020.1
20260510063552 54 0.0 0.0 0.00 0.00 0.00 44 1020.0
20260510062519 55 0.0 0.0 0.00 0.00 0.00 44 1020.0
20260510061518 55 0.0 0.0 0.00 0.00 0.00 43 1020.0
20260510060518 55 0.0 0.0 0.00 0.00 0.00 43 1019.7
20260510055518 56 0.0 0.0 0.00 0.00 0.00 43 1019.5
20260510054518 56 0.0 0.0 0.00 0.00 0.00 42 1019.1
20260510053517 56 0.0 0.0 0.00 0.00 0.00 42 1018.8
20260510052517 56 0.0 0.0 0.00 0.00 0.00 42 1018.6
20260510051517 57 0.0 0.0 0.00 0.00 0.00 44 1018.4
20260510050517 57 0.0 0.0 0.00 0.00 0.00 42 1018.2
20260510045515 58 0.0 0.0 0.00 0.00 0.00 42 1018.2
20260510044535 58 0.0 0.0 0.00 0.00 0.00 42 1018.1
20260510043516 59 0.0 0.0 0.00 0.00 0.00 41 1017.9
20260510042535 59 0.0 0.0 0.00 0.00 0.00 40 1017.8
20260510041515 60 0.0 0.0 0.00 0.00 0.00 39 1017.5
20260510040515 60 0.0 0.0 0.00 0.00 0.00 39 1017.3
20260510035515 60 0.0 0.0 0.00 0.00 0.00 40 1017.1
20260510034515 61 0.0 0.0 0.00 0.00 0.00 40 1017.1
20260510033515 61 0.0 0.0 0.00 0.00 0.00 40 1016.8
20260510032515 62 0.0 0.0 0.00 0.00 0.00 40 1016.7
20260510031516 62 0.0 0.0 0.00 0.00 0.00 40 1016.5
20260510030516 63 0.0 0.0 0.00 0.00 0.00 39 1016.1
20260510025515 64 0.0 0.0 0.00 0.00 0.00 39 1016.0
20260510024515 64 0.0 0.0 0.00 0.00 0.00 38 1015.7
20260510023516 65 0.0 0.0 0.00 0.00 0.00 37 1015.4
20260510022515 66 0.0 0.0 0.00 0.00 0.00 37 1015.2
20260510021515 66 0.0 0.0 0.00 0.00 0.00 37 1015.0
20260510020515 67 0.0 0.0 0.00 0.00 0.00 36 1014.7
20260510015517 67 0.0 0.0 0.00 0.00 0.00 36 1014.4
20260510014517 67 0.0 0.0 0.00 0.00 0.00 37 1014.2
20260510013517 67 0.0 0.0 0.00 0.00 0.00 39 1013.7
20260510012517 68 0.0 0.0 0.00 0.00 0.00 40 1013.7
20260510011517 68 0.0 0.0 0.00 0.00 0.00 41 1013.5
20260510010517 68 0.0 0.0 0.00 0.00 0.00 40 1013.2
20260510005517 69 0.0 0.0 0.00 0.00 0.00 40 1013.1
20260510004537 69 0.0 0.0 0.00 0.00 0.00 40 1012.9
20260510003517 69 0.0 0.0 0.00 0.00 0.00 41 1012.8
20260510002517 70 0.0 0.0 0.00 0.00 0.00 42 1012.6
20260510001517 70 0.0 0.0 0.00 0.00 0.00 43 1012.6
20260510000517 70 0.0 0.0 0.00 0.00 0.00 43 1012.5
20260509235517 70 0.0 0.0 0.00 0.00 0.00 43 1012.5
20260509234517 70 0.0 0.0 0.00 0.00 0.00 44 1012.5
20260509233517 71 0.0 0.0 0.00 0.00 0.00 44 1012.5
20260509232517 71 0.0 0.0 0.00 0.00 0.00 43 1012.4
20260509231517 72 0.0 0.0 0.00 0.00 0.00 43 1012.5
20260509230517 71 0.0 0.0 0.00 0.00 0.00 44 1012.5
20260509225517 72 0.0 0.0 0.00 0.00 0.00 43 1012.3
20260509224517 72 0.0 0.0 0.00 0.00 0.00 43 1012.2
20260509223517 72 0.0 0.0 0.00 0.00 0.00 43 1012.2
20260509222517 73 0.0 0.0 0.00 0.00 0.00 42 1012.2
20260509221517 72 0.0 0.0 0.00 0.00 0.00 42 1012.0
20260509220517 72 0.0 0.0 0.00 0.00 0.00 41 1012.0
20260509215517 71 0.0 0.0 0.00 0.00 0.00 42 1011.8
20260509214517 72 0.0 0.0 0.00 0.00 0.00 40 1011.9
20260509213517 72 0.0 0.0 0.00 0.00 0.00 38 1011.8
20260509212517 73 0.0 0.0 0.00 0.00 0.00 39 1011.5
20260509211517 73 0.0 0.0 0.00 0.00 0.00 40 1011.4
20260509210517 74 0.0 0.0 0.00 0.00 0.00 39 1011.4
20260509205537 75 0.0 0.0 0.00 0.00 0.00 35 1011.2
20260509204517 78 0.0 0.0 0.00 0.00 0.00 30 1010.8
20260509203517 80 0.0 0.0 0.00 0.00 0.00 30 1011.0
20260509202517 80 0.0 0.0 0.00 0.00 0.00 28 1010.7
20260509201517 80 0.0 0.0 0.00 0.00 0.00 27 1010.6
20260509200537 80 0.0 0.0 0.00 0.00 0.00 27 1010.6
20260509195517 80 0.0 0.0 0.00 0.00 0.00 26 1010.6
20260509194517 79 0.0 0.0 0.00 0.00 0.00 27 1010.4
20260509193517 80 0.0 0.0 0.00 0.00 0.00 26 1010.6
20260509192516 79 0.0 0.0 0.00 0.00 0.00 29 1010.5
20260509191516 79 0.0 0.0 0.00 0.00 0.00 28 1010.5
20260509190517 79 0.0 0.0 0.00 0.00 0.00 30 1010.6
20260509185537 78 0.0 0.0 0.00 0.00 0.00 29 1010.6
20260509184517 78 0.0 0.0 0.00 0.00 0.00 28 1010.6
20260509183517 79 0.0 0.0 0.00 0.00 0.00 29 1010.8
20260509182516 78 0.0 0.0 0.00 0.00 0.00 30 1010.7
20260509181517 78 0.0 0.0 0.00 0.00 0.00 28 1010.5
20260509180517 78 0.0 0.0 0.00 0.00 0.00 28 1010.4
20260509175517 79 0.0 0.0 0.00 0.00 0.00 29 1010.3
20260509174517 78 0.0 0.0 0.00 0.00 0.00 28 1010.3
20260509173516 78 0.0 0.0 0.00 0.00 0.00 29 1010.3
20260509172516 77 0.0 0.0 0.00 0.00 0.00 32 1010.6
20260509171516 76 0.0 0.0 0.00 0.00 0.00 31 1010.4
20260509170536 75 0.0 0.0 0.00 0.00 0.00 33 1010.5
20260509165516 75 0.0 0.0 0.00 0.00 0.00 32 1010.7
20260509164537 74 0.0 0.0 0.00 0.00 0.00 36 1010.7
20260509163517 74 0.0 0.0 0.00 0.00 0.00 36 1010.4
20260509162516 74 0.0 0.0 0.00 0.00 0.00 36 1010.4
20260509161516 73 0.0 0.0 0.00 0.00 0.00 35 1010.5
20260509160516 73 0.0 0.0 0.00 0.00 0.00 35 1010.4
20260509155516 73 0.0 0.0 0.00 0.00 0.00 36 1010.4
20260509154517 73 0.0 0.0 0.00 0.00 0.00 36 1010.5
20260509153516 73 0.0 0.0 0.00 0.00 0.00 34 1010.6
20260509152516 73 0.0 0.0 0.00 0.00 0.00 34 1010.5
20260509151516 72 0.0 0.0 0.00 0.00 0.00 37 1010.0
20260509150516 71 0.0 0.0 0.00 0.00 0.00 39 1009.6